Location: Taipo
(41.0000°S, 175.9500°E)
Time: 11:27:25
(UTC+00:00)

Cosmos 1818 - Pass Details

Date: 18 April 2024
Orbit: 770 x 802 km, 65.0° (Epoch: 24 May)

Event Time Altitude Azimuth Distance (km) Brightness Sun altitude
Exits shadow 16:20:35 44° 174° (S) 1,073 4.3 -28.9°
Maximum altitude 16:21:53 56° 126° (SE) 929 4.1 -28.6°
Drops below altitude 10° 16:27:08 10° 48° (NE) 2,330 6.4 -27.6°
Sets 16:29:35 0° 43° (NE) 3,254 7.2 -27.2°
